{"data":{"norad_id":56426,"intl_designator":"2023-061BE","name":"STARLINK-5352","alt_names":[],"object_type":"PAYLOAD","status":"ACTIVE","operator":null,"country":"US","launch_date":"2023-05-04","launch_site_code":"AFETR","launch_vehicle":null,"mission":null,"orbit_class":"UNKNOWN","rcs_meters":null,"size_class":null,"mass_kg":null,"dimensions":null,"purposes":["comms"],"wikipedia_slug":null,"has_3d_model":false,"image_url":null,"decayed_at":null,"tle_current":{"epoch":"2026-09-18T22:59:29.188608Z","epoch_age_seconds":245283,"freshness":"STALE","line1":"1 56426U 23061BE  26261.95797672  .00000191  00000+0  16459-4 0  9993","line2":"2 56426  43.0018 168.3997 0001405 253.3665 106.7032 15.27576112186511","mean_motion":15.27576112,"eccentricity":0.0001405,"inclination_deg":43.0018,"raan_deg":168.3997,"arg_perigee_deg":253.3665,"mean_anomaly_deg":106.7032,"bstar":1.6459e-5,"rev_number":18651,"period_min":94.2669886422,"perigee_km":482.09673985284,"apogee_km":484.02473641726,"semimajor_km":6861.197738135,"source":"CELESTRAK","updated_at":"2026-09-21T09:00:33.439888Z"}}}